Hourly Weather Roundup
Issued by NWS Central Illinois

Home | Current Version | Previous Version | Text Only | Print | Product List | Glossary On
Versions: 1 2 3 4 5 6 7 8 9 10 11 12 13 14 15 16 17 18 19 20 21 22 23 24 25 26 27 28 29 30 31 32 33 34 35 36 37 38 39 40 41 42 43 44 45 46 47 48 49 50
000
NZUS43 KILX 250810
HWRILX

Area Weather Roundup
National Weather Service Lincoln IL
300 AM CDT TUE JUL 25 2017

NOTE:  "FAIR" indicates few or no clouds below 12,000 feet, with
       no sigificant weather and/or obstructions to visibility.


CITY           SKY/WX    TMP DP  RH WIND       PRES   REMARKS
Bloomington    CLEAR     59  58  96 NE6       30.14S
Champaign      CLEAR     63  60  90 NE7       30.12S
Danville       CLEAR     61  60  96 E5        30.11R
Decatur        PTCLDY    62  60  93 E3        30.11S
Effingham      CLEAR     67  65  94 NE5       30.10S
Flora          MOCLDY    71  67  88 NE6       30.07S
Galesburg      CLEAR     63  60  90 E3        30.13S
Jacksonville   CLEAR     63  61  94 CALM      30.10S
Lacon          CLEAR     60  59  98 E5        30.13S
Lawrenceville  CLEAR     69  66  90 NE8       30.08R
Litchfield     CLEAR     67  64  87 E6        30.08S
$$


CITY           SKY/WX    TMP DP  RH WIND       PRES   REMARKS
Lincoln        CLEAR     62  61  98 NE3       30.12S
Macomb         CLEAR     60  60  99 E3        30.13S FOG
Mattoon        CLEAR     64  63  96 NE5       30.10R
Mt Carmel AP   PTCLDY    69  66  90 NE6       30.07R
Olney-Noble AP MOCLDY    68  66  93 NE5       30.08R
Paris AP       CLEAR     62  62  99 E5        30.12R
Peoria         CLEAR     64  61  90 E8        30.12F
Pontiac        CLEAR     59  58  97 E3        30.14S FOG
Rantoul        CLEAR     64  62  95 E5        30.13S
Robinson       CLEAR     65  64  97 NE3       30.11R
Springfield    MOCLDY    67  64  90 NE6       30.11S
Taylorville    CLOUDY    66  63  88 E7        30.10S
$$

...REGIONAL REPORTS...


CITY           SKY/WX    TMP DP  RH WIND       PRES   REMARKS
Chicago O`Hare PTCLDY    65  59  81 N3        30.13S
Kankakee       CLEAR     61  61 100 E3        30.14S
Moline         CLEAR     62  58  86 E7        30.12S
Mount Sterling PTCLDY    66  64  93 E6        30.09F
Mount Vernon   PTCLDY    71  67  87 NE7       30.06S
Pittsfield     CLEAR     67  66  95 E5        30.09F
Quincy         CLEAR     68  65  90 E6        30.09S
Rockford       CLEAR     61  57  87 CALM      30.16R
$$


CITY           SKY/WX    TMP DP  RH WIND       PRES   REMARKS
Burlington     CLEAR     66  64  93 E6        30.10S
Cedar Rapids   CLEAR     62  62 100 SE5       30.11R
Des Moines     PTCLDY    69  65  86 SE9       30.06F
Kirksville     CLEAR     66  65  96 E5        30.10S
Ottumwa        CLEAR     65  63  93 SE8       30.10R
St Louis       PTCLDY    75  67  76 NE7       30.06S
$$


CITY           SKY/WX    TMP DP  RH WIND       PRES   REMARKS
Terre Haute    CLEAR     65  61  87 E6        30.11R
Evansville     PTCLDY    72  68  87 NE7       30.06R
Indianapolis   CLEAR     65  57  75 E7        30.12R
Lafayette      CLEAR     62  59  90 E7        30.13R
Madison        CLEAR     54  53  97 CALM      30.15S
Milwaukee      PTCLDY    60  57  89 CALM      30.15R
$$






USA.gov is the U.S. government's official web portal to all federal, state and local government web resources and services.